This demonstration page uses our WeatherBlox Daily Observations layout. Learn more.

Left ArrowRight Arrow

34.74481, -87.66753

Hourly Observations for October 23, 2021

Temp ( °F °C ) Dew Point ( °F °C ) Humidity (%) Winds ( mph kmh ) Pressure ( in mb ) Visibility ( mi km ) Precip ( " mm )
12:17 am 00:17 Clear 51 10.6 47 8.3 86 86 Calm 30.08 1019 8 13 0.00 0.00
12:53 am 00:53 Clear 51 10.6 47 8.3 86 86 Calm 30.06 1018 7 11 0.00 0.00
1:01 am 01:01 Clear with Mist and Fog 51 10.6 47 8.3 86 86 Calm 30.07 1018 2 2 0.00 0.00
1:09 am 01:09 Clear with Fog 50 10 47 8.3 89 89 Calm 30.07 1018 0 0 0.00 0.00
1:20 am 01:20 Clear with Mist and Fog 50 10 47 8.3 89 89 Calm 30.08 1019 1 2 0.00 0.00
1:29 am 01:29 Clear 50 10 47 8.3 89 89 Calm 30.07 1018 8 13 0.00 0.00
1:53 am 01:53 Clear 51 10.6 47 8.3 86 86 Calm 30.05 1018 7 11 0.00 0.00
2:03 am 02:03 Mostly Clear with Mist and Fog 51 10.6 47 8.3 86 86 SE 3 6 30.07 1018 3 4 0.00 0.00
2:07 am 02:07 Mostly Cloudy with Mist and Fog 49 9.4 46 7.8 90 90 Calm 30.07 1018 1 2 0.00 0.00
2:16 am 02:16 Mostly Cloudy with Fog 50 10 46 7.8 86 86 Calm 30.07 1018 1 1 0.00 0.00
2:48 am 02:48 Clear with Fog 50 10 46 8 88 88 Calm 30.06 1018 1 1 0.00 0.00
2:53 am 02:53 Clear with Fog 49 9.4 46 7.8 90 90 Calm 30.04 1017 1 1 0.00 0.00
3:13 am 03:13 Clear with Mist and Fog 49 9.4 46 7.8 90 90 Calm 30.06 1018 2 2 0.00 0.00
3:37 am 03:37 Hazy 50 10 45 7.2 83 83 Calm 30.07 1018 4 6 0.00 0.00
3:53 am 03:53 Clear with Mist and Fog 50 10 46 7.8 86 86 Calm 30.05 1018 2 3 0.00 0.00
4:01 am 04:01 Clear with Mist and Fog 49 9.4 45 7.2 86 86 Calm 30.07 1018 1 2 0.00 0.00
4:21 am 04:21 Clear with Fog 49 9.4 45 7.2 86 86 Calm 30.06 1018 1 1 0.00 0.00
4:37 am 04:37 Clear with Mist and Fog 49 9.4 45 7.2 86 86 Calm 30.07 1018 2 2 0.00 0.00
4:46 am 04:46 Clear with Mist and Fog 49 9.4 45 7.2 86 86 Calm 30.07 1018 2 3 0.00 0.00
4:53 am 04:53 Clear with Mist and Fog 49 9.4 45 7.2 86 86 Calm 30.05 1018 3 4 0.00 0.00
5:18 am 05:18 Clear with Mist and Fog 49 9.4 46 7.8 90 90 E 3 6 30.07 1018 4 6 0.00 0.00
5:53 am 05:53 Clear 49 9.4 45 7.2 86 86 E 3 6 30.07 1018 7 11 0.00 0.00
6:53 am 06:53 Clear with Mist and Fog 49 9.4 45 7.2 86 86 Calm 30.07 1018 3 5 0.00 0.00
7:04 am 07:04 Sunny with Mist and Fog 48 8.9 44 6.7 86 86 Calm 30.08 1019 2 3 0.00 0.00
7:10 am 07:10 Sunny with Mist and Fog 48 8.9 45 7.2 89 89 Calm 30.08 1019 1 1 0.00 0.00
7:26 am 07:26 Sunny with Mist and Fog 49 9.4 46 7.8 90 90 Calm 30.09 1019 2 3 0.00 0.00
7:39 am 07:39 Sunny with Mist and Fog 50 10 47 8.3 89 89 Calm 30.09 1019 5 8 0.00 0.00
7:53 am 07:53 Sunny 51 10.6 48 8.9 89 89 SSE 3 6 30.08 1019 7 11 0.00 0.00
8:53 am 08:53 Sunny 57 13.9 51 10.6 81 81 SE 5 7 30.09 1019 10 16 0.00 0.00
9:53 am 09:53 Sunny 62 16.7 53 11.7 73 73 ESE 6 9 30.09 1019 10 16 0.00 0.00
10:53 am 10:53 Sunny 67 19.4 53 11.7 61 61 SE 8 13 30.08 1019 10 16 0.00 0.00
11:53 am 11:53 Sunny 71 21.7 52 11.1 51 51 SE 9 15 30.07 1018 10 16 0.00 0.00
12:53 pm 12:53 Sunny 74 23.3 51 10.6 45 45 SE 8 13 30.04 1017 10 16 0.00 0.00
1:53 pm 13:53 Sunny 75 23.9 50 10 41 41 VRB 7 11 30.01 1016 10 16 0.00 0.00
2:53 pm 14:53 Sunny 77 25 52 11.1 42 42 S 5 7 30.00 1016 10 16 0.00 0.00
3:53 pm 15:53 Sunny 78 25.6 51 10.6 39 39 S 5 7 30.00 1016 10 16 0.00 0.00
4:53 pm 16:53 Sunny 77 25 52 11.1 42 42 S 7 11 29.99 1016 10 16 0.00 0.00
5:53 pm 17:53 Sunny 72 22.2 53 11.7 52 52 SSE 6 9 29.99 1016 10 16 0.00 0.00
6:53 pm 18:53 Clear 67 19.4 54 12.2 63 63 SSE 6 9 30.00 1016 10 16 0.00 0.00
7:53 pm 19:53 Clear 64 17.8 54 12.2 70 70 SSE 3 6 30.01 1016 10 16 0.00 0.00
8:53 pm 20:53 Clear 62 16.7 54 12.2 75 75 SE 5 7 29.98 1015 10 16 0.00 0.00
9:53 pm 21:53 Clear 62 16.7 54 12.2 75 75 SE 6 9 29.98 1015 10 16 0.00 0.00
10:53 pm 22:53 Clear 61 16.1 54 12.2 78 78 SE 3 6 29.99 1016 10 16 0.00 0.00
11:53 pm 23:53 Clear 59 15 53 11.7 81 81 ESE 3 6 29.99 1016 10 16 0.00 0.00

Powered by AerisWeather